TimeCST,TemperatureF,Dew PointF,Humidity,Sea Level PressureIn,VisibilityMPH,Wind Direction,Wind SpeedMPH,Gust SpeedMPH,PrecipitationIn,Events,Conditions,WindDirDegrees,DateUTC
12:15 AM,64.4,55.4,73,30.14,10.0,South,5.8,-,N/A,,Scattered Clouds,190,2012-12-04 06:15:00
12:35 AM,64.4,55.4,73,30.14,9.0,South,4.6,-,N/A,,Mostly Cloudy,190,2012-12-04 06:35:00
12:55 AM,62.6,55.4,77,30.14,9.0,SSW,5.8,-,N/A,,Mostly Cloudy,210,2012-12-04 06:55:00
1:15 AM,62.6,55.4,77,30.14,10.0,South,3.5,-,N/A,,Mostly Cloudy,180,2012-12-04 07:15:00
1:35 AM,64.4,55.4,73,30.14,9.0,South,5.8,-,N/A,,Overcast,190,2012-12-04 07:35:00
1:55 AM,64.4,57.2,77,30.15,10.0,SSW,5.8,-,N/A,,Overcast,200,2012-12-04 07:55:00
2:15 AM,64.4,57.2,77,30.15,10.0,SSW,4.6,-,N/A,,Scattered Clouds,200,2012-12-04 08:15:00
2:35 AM,64.4,57.2,77,30.15,10.0,SSW,5.8,-,N/A,,Partly Cloudy,200,2012-12-04 08:35:00
2:55 AM,64.4,57.2,77,30.15,10.0,SSW,5.8,-,N/A,,Scattered Clouds,200,2012-12-04 08:55:00
3:15 AM,64.4,57.2,77,30.15,6.0,South,5.8,-,N/A,Rain,Light Rain,190,2012-12-04 09:15:00
3:35 AM,62.6,57.2,82,30.15,9.0,South,4.6,-,N/A,,Scattered Clouds,190,2012-12-04 09:35:00
3:55 AM,62.6,57.2,82,30.15,9.0,South,3.5,-,N/A,,Partly Cloudy,190,2012-12-04 09:55:00
4:15 AM,62.6,59.0,88,30.15,9.0,South,4.6,-,N/A,,Scattered Clouds,190,2012-12-04 10:15:00
4:35 AM,62.6,59.0,88,30.15,2.5,South,4.6,-,0.03,Rain,Light Rain,190,2012-12-04 10:35:00
4:55 AM,60.8,59.0,94,30.15,1.5,South,3.5,-,0.08,Rain,Light Rain,170,2012-12-04 10:55:00
5:15 AM,60.8,59.0,94,30.16,2.5,South,4.6,-,0.01,Rain,Light Rain,180,2012-12-04 11:15:00
5:35 AM,60.8,59.0,94,30.16,3.0,South,4.6,-,0.04,Rain,Light Rain,180,2012-12-04 11:35:00
6:15 AM,60.8,59.0,94,30.17,6.0,SSE,3.5,-,N/A,,Overcast,160,2012-12-04 12:15:00
6:35 AM,60.8,59.0,94,30.17,6.0,Calm,Calm,-,N/A,,Overcast,0,2012-12-04 12:35:00
6:55 AM,60.8,59.0,94,30.18,7.0,SSE,3.5,-,N/A,,Overcast,160,2012-12-04 12:55:00
7:15 AM,60.8,59.0,94,30.18,5.0,South,4.6,-,N/A,,Overcast,170,2012-12-04 13:15:00
7:35 AM,60.8,59.0,94,30.18,5.0,South,4.6,-,N/A,,Overcast,170,2012-12-04 13:35:00
7:55 AM,60.8,59.0,94,30.19,3.0,Calm,Calm,-,N/A,Rain,Light Rain,0,2012-12-04 13:55:00
8:35 AM,62.6,60.8,94,30.19,6.0,South,3.5,-,N/A,,Overcast,180,2012-12-04 14:35:00
8:55 AM,62.6,60.8,94,30.20,6.0,SSW,6.9,-,N/A,,Mostly Cloudy,200,2012-12-04 14:55:00
9:15 AM,62.6,60.8,94,30.21,5.0,SSW,6.9,-,N/A,,Overcast,210,2012-12-04 15:15:00
9:35 AM,64.4,62.6,94,30.21,6.0,South,4.6,-,N/A,,Overcast,190,2012-12-04 15:35:00
9:55 AM,64.4,62.6,94,30.21,6.0,SSW,6.9,-,N/A,,Overcast,200,2012-12-04 15:55:00
10:15 AM,64.4,62.6,94,30.20,5.0,SSW,4.6,-,N/A,,Overcast,210,2012-12-04 16:15:00
11:15 AM,66.2,62.6,88,30.19,7.0,SW,5.8,-,N/A,,Mostly Cloudy,220,2012-12-04 17:15:00
11:55 AM,68.0,62.6,83,30.17,7.0,SW,5.8,-,N/A,,Overcast,220,2012-12-04 17:55:00
12:15 PM,68.0,62.6,83,30.16,8.0,WSW,6.9,-,N/A,,Mostly Cloudy,250,2012-12-04 18:15:00
12:35 PM,69.8,62.6,78,30.15,8.0,WSW,8.1,-,N/A,,Mostly Cloudy,240,2012-12-04 18:35:00
12:55 PM,71.6,62.6,73,30.14,7.0,SW,6.9,17.3,N/A,Thunderstorm,Scattered Clouds,230,2012-12-04 18:55:00
1:15 PM,69.8,60.8,73,30.13,8.0,West,11.5,-,N/A,,Scattered Clouds,260,2012-12-04 19:15:00
1:35 PM,71.6,59.0,64,30.13,9.0,West,10.4,16.1,N/A,,Scattered Clouds,280,2012-12-04 19:35:00
1:55 PM,69.8,59.0,68,30.13,9.0,WSW,10.4,16.1,N/A,Thunderstorm,Mostly Cloudy,250,2012-12-04 19:55:00
2:15 PM,62.6,55.4,77,30.17,8.0,NNW,18.4,32.2,N/A,,Mostly Cloudy,330,2012-12-04 20:15:00
2:35 PM,59.0,55.4,88,30.16,2.0,North,10.4,-,0.14,Rain,Light Rain,350,2012-12-04 20:35:00
3:15 PM,57.2,55.4,94,30.17,8.0,North,4.6,-,N/A,Rain,Light Rain,350,2012-12-04 21:15:00
3:35 PM,59.0,55.4,88,30.16,8.0,Calm,Calm,-,N/A,Rain-Thunderstorm,Light Rain,0,2012-12-04 21:35:00
3:55 PM,57.2,55.4,94,30.16,8.0,NE,3.5,-,N/A,,Mostly Cloudy,40,2012-12-04 21:55:00
4:15 PM,57.2,55.4,94,30.16,9.0,Calm,Calm,-,N/A,,Mostly Cloudy,0,2012-12-04 22:15:00
4:35 PM,57.2,55.4,94,30.16,9.0,East,3.5,-,N/A,,Partly Cloudy,100,2012-12-04 22:35:00
4:55 PM,57.2,55.4,94,30.17,10.0,Calm,Calm,-,N/A,,Mostly Cloudy,0,2012-12-04 22:55:00
5:15 PM,57.2,55.4,94,30.17,10.0,Calm,Calm,-,N/A,Thunderstorm,Mostly Cloudy,0,2012-12-04 23:15:00
5:35 PM,57.2,55.4,94,30.20,5.0,South,6.9,-,0.01,Rain-Thunderstorm,Light Rain,170,2012-12-04 23:35:00
5:55 PM,57.2,55.4,94,30.21,3.0,South,4.6,-,0.05,Rain,Light Rain,170,2012-12-04 23:55:00
6:15 PM,57.2,55.4,94,30.20,5.0,South,4.6,-,N/A,Rain,Light Rain,170,2012-12-05 00:15:00
6:35 PM,55.4,55.4,100,30.17,4.0,SE,4.6,-,0.02,Rain,Light Rain,140,2012-12-05 00:35:00
6:55 PM,55.4,55.4,100,30.19,8.0,North,6.9,-,0.03,Rain,Light Rain,360,2012-12-05 00:55:00
7:15 PM,55.4,55.4,100,30.19,10.0,NE,3.5,-,N/A,,Partly Cloudy,40,2012-12-05 01:15:00
7:35 PM,55.4,55.4,100,30.20,10.0,NNW,5.8,-,N/A,,Clear,340,2012-12-05 01:35:00
7:55 PM,55.4,55.4,100,30.20,10.0,North,5.8,-,N/A,,Clear,350,2012-12-05 01:55:00
8:15 PM,55.4,53.6,94,30.19,10.0,North,3.5,-,N/A,,Clear,360,2012-12-05 02:15:00
8:35 PM,55.4,53.6,94,30.19,10.0,Calm,Calm,-,N/A,,Clear,0,2012-12-05 02:35:00
8:55 PM,55.4,55.4,100,30.20,10.0,Calm,Calm,-,N/A,,Clear,0,2012-12-05 02:55:00
9:15 PM,55.4,53.6,94,30.20,10.0,NNW,3.5,-,N/A,,Clear,330,2012-12-05 03:15:00
9:35 PM,55.4,53.6,94,30.20,9.0,Calm,Calm,-,N/A,,Clear,0,2012-12-05 03:35:00
9:55 PM,55.4,53.6,94,30.21,10.0,Calm,Calm,-,N/A,,Clear,0,2012-12-05 03:55:00
10:15 PM,55.4,53.6,94,30.21,8.0,Calm,Calm,-,N/A,,Clear,0,2012-12-05 04:15:00
10:35 PM,55.4,53.6,94,30.20,3.0,Calm,Calm,-,N/A,,Partly Cloudy,0,2012-12-05 04:35:00
10:55 PM,53.6,53.6,100,30.21,7.0,Calm,Calm,-,N/A,,Clear,0,2012-12-05 04:55:00
11:15 PM,53.6,53.6,100,30.23,5.0,NW,3.5,-,N/A,,Clear,310,2012-12-05 05:15:00
11:35 PM,53.6,53.6,100,30.22,2.0,Calm,Calm,-,N/A,,Overcast,0,2012-12-05 05:35:00
11:55 PM,53.6,53.6,100,30.21,3.0,ENE,3.5,-,N/A,,Overcast,70,2012-12-05 05:55:00